Terminal Aerodrome Forecast
Issued by NWS Newport/Morehead City, NC

Home | Current Version | Previous Version | Graphics & Text | Print | Product List | Glossary On
Versions: 1 2 3 4 5 6 7 8 9 10 11 12 13
566
FTUS42 KMHX 260538
TAFEWN
TAF
KEWN 260538Z 2606/2706 00000KT P6SM BKN250
     FM260900 00000KT 5SM BR BKN250
     FM261300 VRB04KT P6SM BKN035
     FM261700 16007KT P6SM SCT045=

USA.gov is the U.S. government's official web portal to all federal, state and local government web resources and services.